| time (UTC) | temp F | wind direction | speed MPH | gust MPH | rain 1hr in | rain 24hr in | rain mn in | humidity % | barometer mb |
| 20260508030038 | 51 | 134 | 1.0 | 2.0 | 0.00 | 0.00 | 0.00 | 57 | 1016.3 |
| 20260508024514 | 52 | 126 | 0.0 | 1.0 | 0.00 | 0.00 | 0.00 | 55 | 1016.2 |
| 20260508023019 | 54 | 117 | 1.0 | 2.0 | 0.00 | 0.00 | 0.00 | 52 | 1016.1 |
| 20260508021527 | 55 | 64 | 1.0 | 4.0 | 0.00 | 0.00 | 0.00 | 50 | 1015.8 |
| 20260508020025 | 55 | 271 | 0.0 | 2.0 | 0.00 | 0.00 | 0.00 | 51 | 1015.7 |
| 20260508014525 | 57 | 133 | 0.0 | 3.0 | 0.00 | 0.00 | 0.00 | 45 | 1015.7 |
| 20260508013008 | 59 | 124 | 1.0 | 3.0 | 0.00 | 0.00 | 0.00 | 39 | 1015.5 |
| 20260508011515 | 58 | 316 | 4.0 | 17.0 | 0.00 | 0.00 | 0.00 | 39 | 1015.4 |
| 20260508010027 | 57 | 23 | 11.0 | 16.0 | 0.00 | 0.00 | 0.00 | 42 | 1015.3 |
| 20260508004527 | 58 | 355 | 8.0 | 18.0 | 0.00 | 0.00 | 0.00 | 40 | 1015.7 |
| 20260508003027 | 58 | 5 | 6.0 | 12.0 | 0.00 | 0.00 | 0.00 | 39 | 1015.5 |
| 20260508001511 | 59 | 48 | 10.0 | 23.0 | 0.00 | 0.00 | 0.00 | 37 | 1015.4 |
| 20260508000016 | 58 | 51 | 9.0 | 16.0 | 0.00 | 0.00 | 0.00 | 39 | 1015.2 |
| 20260507234524 | 58 | 22 | 7.0 | 26.0 | 0.00 | 0.00 | 0.00 | 38 | 1015.1 |
| 20260507233026 | 63 | 347 | 7.0 | 16.0 | 0.00 | 0.00 | 0.00 | 29 | 1014.8 |
| 20260507231529 | 63 | 323 | 4.0 | 11.0 | 0.00 | 0.00 | 0.00 | 27 | 1014.9 |
| 20260507230024 | 64 | 243 | 6.0 | 13.0 | 0.00 | 0.00 | 0.00 | 27 | 1014.9 |
| 20260507224524 | 65 | 326 | 6.0 | 10.0 | 0.00 | 0.00 | 0.00 | 30 | 1015.0 |
| 20260507223022 | 64 | 311 | 6.0 | 14.0 | 0.00 | 0.00 | 0.00 | 29 | 1015.1 |
| 20260507221527 | 64 | 276 | 6.0 | 16.0 | 0.00 | 0.00 | 0.00 | 29 | 1015.4 |
| 20260507220029 | 64 | 290 | 7.0 | 15.0 | 0.00 | 0.00 | 0.00 | 29 | 1015.3 |
| 20260507214513 | 64 | 265 | 2.0 | 10.0 | 0.00 | 0.00 | 0.00 | 37 | 1015.5 |
| 20260507213021 | 63 | 217 | 2.0 | 9.0 | 0.00 | 0.00 | 0.00 | 32 | 1015.6 |
| 20260507211524 | 60 | 214 | 3.0 | 6.0 | 0.00 | 0.00 | 0.00 | 40 | 1016.1 |
| 20260507210026 | 59 | 205 | 2.0 | 8.0 | 0.00 | 0.00 | 0.00 | 45 | 1016.3 |
| 20260507204526 | 59 | 119 | 5.0 | 15.0 | 0.00 | 0.00 | 0.00 | 45 | 1016.9 |
| 20260507203018 | 60 | 213 | 2.0 | 9.0 | 0.00 | 0.00 | 0.00 | 39 | 1016.2 |
| 20260507191523 | 60 | 254 | 1.0 | 12.0 | 0.00 | 0.00 | 0.00 | 38 | 1016.8 |
| 20260507190007 | 60 | 238 | 6.0 | 9.0 | 0.00 | 0.00 | 0.00 | 38 | 1017.1 |
| 20260507184508 | 59 | 262 | 5.0 | 12.0 | 0.00 | 0.00 | 0.00 | 40 | 1017.1 |
| 20260507183016 | 58 | 311 | 4.0 | 7.0 | 0.00 | 0.00 | 0.00 | 40 | 1017.3 |
| 20260507181518 | 59 | 293 | 2.0 | 7.0 | 0.00 | 0.00 | 0.00 | 39 | 1017.4 |
| 20260507180020 | 58 | 226 | 2.0 | 5.0 | 0.00 | 0.00 | 0.00 | 39 | 1017.6 |
| 20260507174506 | 58 | 245 | 3.0 | 4.0 | 0.00 | 0.00 | 0.00 | 40 | 1017.6 |
| 20260507173008 | 57 | 278 | 3.0 | 6.0 | 0.00 | 0.00 | 0.00 | 41 | 1017.8 |
| 20260507171526 | 56 | 297 | 1.0 | 4.0 | 0.00 | 0.00 | 0.00 | 41 | 1017.7 |
| 20260507170021 | 56 | 245 | 5.0 | 10.0 | 0.00 | 0.00 | 0.00 | 40 | 1017.9 |
| 20260507164524 | 57 | 269 | 3.0 | 9.0 | 0.00 | 0.00 | 0.00 | 41 | 1017.9 |
| 20260507163005 | 57 | 240 | 4.0 | 7.0 | 0.00 | 0.00 | 0.00 | 40 | 1018.0 |
| 20260507161512 | 56 | 284 | 3.0 | 6.0 | 0.00 | 0.00 | 0.00 | 42 | 1018.1 |
| 20260507160032 | 55 | 210 | 3.0 | 6.0 | 0.00 | 0.00 | 0.00 | 42 | 1018.3 |
| 20260507154523 | 56 | 250 | 5.0 | 8.0 | 0.00 | 0.00 | 0.00 | 40 | 1018.2 |
| 20260507153026 | 55 | 280 | 0.0 | 5.0 | 0.00 | 0.00 | 0.00 | 41 | 1018.3 |
| 20260507151510 | 56 | 67 | 2.0 | 5.0 | 0.00 | 0.00 | 0.00 | 39 | 1018.3 |
| 20260507150016 | 54 | 169 | 2.0 | 6.0 | 0.00 | 0.00 | 0.00 | 42 | 1018.3 |
| 20260507144528 | 51 | 127 | 1.0 | 3.0 | 0.00 | 0.00 | 0.00 | 49 | 1018.5 |
| 20260507143037 | 46 | 121 | 0.0 | 2.0 | 0.00 | 0.00 | 0.00 | 54 | 1018.4 |
| 20260507141535 | 45 | 86 | 2.0 | 4.0 | 0.00 | 0.00 | 0.00 | 58 | 1018.4 |
| 20260507140028 | 44 | 87 | 1.0 | 2.0 | 0.00 | 0.00 | 0.00 | 60 | 1018.4 |
| 20260507134517 | 43 | 83 | 0.0 | 2.0 | 0.00 | 0.00 | 0.00 | 61 | 1018.5 |
| 20260507133020 | 43 | 112 | 0.0 | 1.0 | 0.00 | 0.00 | 0.00 | 63 | 1018.3 |
| 20260507131523 | 43 | 124 | 0.0 | 1.0 | 0.00 | 0.00 | 0.00 | 62 | 1018.3 |
| 20260507130039 | 44 | 134 | 0.0 | 3.0 | 0.00 | 0.00 | 0.00 | 59 | 1018.1 |
| 20260507124515 | 44 | 108 | 2.0 | 3.0 | 0.00 | 0.00 | 0.00 | 60 | 1018.1 |
| 20260507123018 | 44 | 211 | 0.0 | 1.0 | 0.00 | 0.00 | 0.00 | 62 | 1018.2 |
| 20260507121524 | 45 | 165 | 1.0 | 5.0 | 0.00 | 0.00 | 0.00 | 62 | 1018.1 |
| 20260507120008 | 45 | 115 | 3.0 | 9.0 | 0.00 | 0.00 | 0.00 | 62 | 1018.2 |
| 20260507114514 | 48 | 91 | 4.0 | 9.0 | 0.00 | 0.00 | 0.00 | 52 | 1018.1 |
| 20260507113015 | 46 | 57 | 2.0 | 3.0 | 0.00 | 0.00 | 0.00 | 55 | 1018.7 |
| 20260507111520 | 47 | 149 | 0.0 | 2.0 | 0.00 | 0.00 | 0.00 | 55 | 1018.6 |
| 20260507110026 | 47 | 122 | 0.0 | 2.0 | 0.00 | 0.00 | 0.00 | 54 | 1018.6 |
| 20260507104508 | 48 | 153 | 0.0 | 1.0 | 0.00 | 0.00 | 0.00 | 50 | 1018.4 |
| 20260507103016 | 49 | 158 | 0.0 | 2.0 | 0.00 | 0.00 | 0.00 | 50 | 1018.5 |
| 20260507101516 | 49 | 146 | 0.0 | 2.0 | 0.00 | 0.00 | 0.00 | 48 | 1018.5 |
| 20260507100025 | 49 | 129 | 1.0 | 4.0 | 0.00 | 0.00 | 0.00 | 49 | 1018.2 |
| 20260507094525 | 49 | 147 | 0.0 | 1.0 | 0.00 | 0.00 | 0.00 | 49 | 1018.1 |
| 20260507093010 | 50 | 99 | 1.0 | 2.0 | 0.00 | 0.00 | 0.00 | 47 | 1018.0 |
| 20260507091522 | 51 | 65 | 0.0 | 1.0 | 0.00 | 0.00 | 0.00 | 47 | 1018.0 |
| 20260507090017 | 52 | 72 | 1.0 | 3.0 | 0.00 | 0.00 | 0.00 | 45 | 1017.8 |
| 20260507084521 | 51 | 108 | 1.0 | 4.0 | 0.00 | 0.00 | 0.00 | 46 | 1017.5 |
| 20260507083025 | 51 | 139 | 1.0 | 3.0 | 0.00 | 0.00 | 0.00 | 47 | 1017.7 |
| 20260507081517 | 52 | 148 | 2.0 | 7.0 | 0.00 | 0.00 | 0.00 | 44 | 1017.5 |
| 20260507080015 | 52 | 226 | 2.0 | 8.0 | 0.00 | 0.00 | 0.00 | 44 | 1017.6 |
| 20260507074520 | 52 | 112 | 2.0 | 7.0 | 0.00 | 0.00 | 0.00 | 44 | 1017.4 |
| 20260507073022 | 53 | 145 | 3.0 | 7.0 | 0.00 | 0.00 | 0.00 | 43 | 1017.4 |
| 20260507071532 | 53 | 160 | 3.0 | 6.0 | 0.00 | 0.00 | 0.00 | 44 | 1017.7 |
| 20260507070025 | 53 | 98 | 2.0 | 6.0 | 0.00 | 0.00 | 0.00 | 43 | 1017.7 |
| 20260507064528 | 54 | 77 | 2.0 | 8.0 | 0.00 | 0.00 | 0.00 | 43 | 1017.8 |
| 20260507063020 | 54 | 140 | 1.0 | 7.0 | 0.00 | 0.00 | 0.00 | 42 | 1017.9 |
| 20260507061524 | 54 | 84 | 2.0 | 6.0 | 0.00 | 0.00 | 0.00 | 42 | 1018.2 |
| 20260507060016 | 53 | 95 | 1.0 | 5.0 | 0.00 | 0.00 | 0.00 | 43 | 1018.3 |
| 20260507054516 | 53 | 159 | 0.0 | 6.0 | 0.00 | 0.00 | 0.00 | 43 | 1018.4 |
| 20260507053020 | 53 | 68 | 1.0 | 4.0 | 0.00 | 0.00 | 0.00 | 42 | 1018.4 |
| 20260507051525 | 51 | 69 | 1.0 | 3.0 | 0.00 | 0.00 | 0.00 | 44 | 1018.4 |
| 20260507050038 | 51 | 103 | 2.0 | 3.0 | 0.00 | 0.00 | 0.00 | 44 | 1018.6 |
| 20260507044514 | 53 | 49 | 6.0 | 8.0 | 0.00 | 0.00 | 0.00 | 40 | 1018.6 |
| 20260507043030 | 53 | 84 | 1.0 | 5.0 | 0.00 | 0.00 | 0.00 | 40 | 1018.7 |
| 20260507041526 | 51 | 64 | 2.0 | 4.0 | 0.00 | 0.00 | 0.00 | 41 | 1019.0 |
| 20260507040030 | 52 | 199 | 0.0 | 6.0 | 0.00 | 0.00 | 0.00 | 40 | 1019.0 |
| 20260507034524 | 50 | 120 | 1.0 | 3.0 | 0.00 | 0.00 | 0.00 | 42 | 1019.1 |
| 20260507033012 | 50 | 109 | 0.0 | 3.0 | 0.00 | 0.00 | 0.00 | 44 | 1019.0 |
| 20260507031522 | 51 | 39 | 2.0 | 4.0 | 0.00 | 0.00 | 0.00 | 41 | 1018.7 |